TimeCDT,TemperatureF,Dew PointF,Humidity,Sea Level PressureIn,VisibilityMPH,Wind Direction,Wind SpeedMPH,Gust SpeedMPH,PrecipitationIn,Events,Conditions,WindDirDegrees,DateUTC
12:53 AM,66.0,62.1,87,29.59,10.0,ESE,12.7,-,N/A,,Clear,120,2013-05-29 05:53:00
1:53 AM,66.0,64.0,93,29.58,10.0,SE,13.8,-,N/A,,Clear,130,2013-05-29 06:53:00
2:53 AM,66.9,64.9,93,29.60,10.0,SE,15.0,20.7,N/A,,Partly Cloudy,130,2013-05-29 07:53:00
3:21 AM,66.2,64.4,94,29.65,9.0,SE,13.8,-,N/A,,Mostly Cloudy,130,2013-05-29 08:21:00
3:42 AM,68.0,64.4,88,29.65,9.0,SE,13.8,-,N/A,,Scattered Clouds,140,2013-05-29 08:42:00
3:53 AM,68.0,64.9,90,29.60,9.0,SE,13.8,-,N/A,,Partly Cloudy,140,2013-05-29 08:53:00
4:53 AM,66.9,64.9,93,29.60,8.0,SE,10.4,-,N/A,,Clear,140,2013-05-29 09:53:00
5:24 AM,66.2,66.2,100,29.65,7.0,South,6.9,-,N/A,,Mostly Cloudy,170,2013-05-29 10:24:00
5:53 AM,68.0,66.0,93,29.61,7.0,SW,3.5,-,N/A,,Overcast,220,2013-05-29 10:53:00
6:19 AM,68.0,66.2,94,29.66,8.0,South,8.1,-,N/A,,Overcast,170,2013-05-29 11:19:00
6:53 AM,68.0,66.0,93,29.60,7.0,SE,9.2,-,N/A,,Overcast,140,2013-05-29 11:53:00
7:04 AM,68.0,66.2,94,29.65,6.0,SE,9.2,-,N/A,,Overcast,140,2013-05-29 12:04:00
7:14 AM,68.0,66.2,94,29.65,6.0,SSE,11.5,-,N/A,,Overcast,160,2013-05-29 12:14:00
7:41 AM,68.0,66.2,94,29.64,6.0,SSE,12.7,-,N/A,,Overcast,150,2013-05-29 12:41:00
7:49 AM,68.0,66.2,94,29.63,7.0,SSE,13.8,20.7,N/A,,Overcast,150,2013-05-29 12:49:00
7:53 AM,68.0,66.0,93,29.60,7.0,SSE,15.0,-,N/A,,Mostly Cloudy,150,2013-05-29 12:53:00
8:53 AM,69.1,66.0,90,29.57,6.0,SSE,13.8,-,0.02,Rain,Light Rain,160,2013-05-29 13:53:00
9:53 AM,71.1,66.9,87,29.55,10.0,SSE,19.6,28.8,0.02,,Scattered Clouds,160,2013-05-29 14:53:00
10:10 AM,69.8,66.2,88,29.62,10.0,South,19.6,25.3,N/A,,Mostly Cloudy,170,2013-05-29 15:10:00
10:41 AM,69.8,66.2,88,29.62,9.0,South,20.7,32.2,0.00,Rain,Light Rain,170,2013-05-29 15:41:00
10:53 AM,70.0,66.0,87,29.57,10.0,SSE,17.3,24.2,0.00,Rain,Light Rain,160,2013-05-29 15:53:00
11:24 AM,69.8,64.4,83,29.65,9.0,SSW,19.6,27.6,0.00,Rain-Thunderstorm,Light Thunderstorms and Rain,200,2013-05-29 16:24:00
11:38 AM,66.2,64.4,94,29.64,1.8,WSW,10.4,-,0.07,Rain-Thunderstorm,Heavy Thunderstorms and Rain,240,2013-05-29 16:38:00
11:45 AM,66.2,64.4,94,29.63,1.5,WSW,8.1,-,0.21,Rain,Heavy Rain,240,2013-05-29 16:45:00
11:49 AM,66.2,62.6,88,29.63,3.0,West,10.4,-,0.22,Rain,Light Rain,260,2013-05-29 16:49:00
11:53 AM,66.0,64.0,93,29.60,7.0,West,3.5,-,0.22,Rain,Light Rain,280,2013-05-29 16:53:00
12:26 PM,68.0,64.4,88,29.66,10.0,East,4.6,-,0.01,,Overcast,80,2013-05-29 17:26:00
12:53 PM,71.1,64.9,81,29.60,10.0,ESE,8.1,-,0.01,,Overcast,110,2013-05-29 17:53:00
1:43 PM,69.8,66.2,88,29.61,10.0,ESE,11.5,-,N/A,,Overcast,120,2013-05-29 18:43:00
1:53 PM,70.0,66.9,90,29.55,10.0,ESE,10.4,-,N/A,,Overcast,110,2013-05-29 18:53:00
2:53 PM,70.0,66.9,90,29.52,10.0,SE,13.8,24.2,0.00,Rain,Light Rain,130,2013-05-29 19:53:00
3:53 PM,70.0,60.1,71,29.48,10.0,SE,18.4,26.5,0.00,Rain,Light Rain,130,2013-05-29 20:53:00
4:53 PM,73.0,64.9,76,29.42,10.0,ESE,23.0,34.5,0.00,,Scattered Clouds,120,2013-05-29 21:53:00
5:53 PM,73.9,68.0,82,29.44,10.0,SE,16.1,25.3,N/A,,Mostly Cloudy,140,2013-05-29 22:53:00
6:53 PM,71.1,63.0,75,29.49,10.0,SW,8.1,-,N/A,,Scattered Clouds,230,2013-05-29 23:53:00
7:14 PM,68.0,60.8,78,29.56,10.0,NNW,16.1,27.6,N/A,Thunderstorm,Scattered Clouds,330,2013-05-30 00:14:00
7:27 PM,60.8,57.2,88,29.58,2.0,NNW,19.6,33.4,0.02,Rain-Thunderstorm,Heavy Rain,340,2013-05-30 00:27:00
7:43 PM,60.8,57.2,88,29.58,6.0,North,20.7,28.8,0.10,Rain-Thunderstorm,Light Rain,350,2013-05-30 00:43:00
7:53 PM,60.1,57.9,93,29.56,10.0,NNW,13.8,-,0.10,Rain-Thunderstorm,Light Rain,340,2013-05-30 00:53:00
8:14 PM,59.0,57.2,94,29.59,4.0,North,12.7,-,0.02,Rain,Rain,10,2013-05-30 01:14:00
8:53 PM,60.1,57.9,93,29.52,10.0,NE,11.5,-,0.04,,Mostly Cloudy,40,2013-05-30 01:53:00
9:40 PM,60.8,57.2,88,29.54,10.0,NE,8.1,-,N/A,Thunderstorm,Mostly Cloudy,50,2013-05-30 02:40:00
9:53 PM,60.1,57.9,93,29.49,7.0,NE,11.5,-,0.00,Rain-Thunderstorm,Thunderstorms and Rain,50,2013-05-30 02:53:00
10:04 PM,60.8,57.2,88,29.58,5.0,West,8.1,-,0.04,Rain,Light Rain,270,2013-05-30 03:04:00
10:11 PM,60.8,59.0,94,29.63,2.5,WSW,13.8,-,0.09,Rain,Heavy Rain,240,2013-05-30 03:11:00
10:20 PM,60.8,59.0,94,29.65,1.5,SSW,10.4,-,0.25,Rain,Heavy Rain,200,2013-05-30 03:20:00
10:24 PM,60.8,59.0,94,29.65,2.0,South,5.8,17.3,0.30,Rain-Thunderstorm,Heavy Rain,190,2013-05-30 03:24:00
10:36 PM,60.8,59.0,94,29.66,4.0,SSW,5.8,-,0.37,Rain-Thunderstorm,Rain,200,2013-05-30 03:36:00
10:48 PM,60.8,59.0,94,29.67,5.0,SSW,5.8,-,0.39,Rain-Thunderstorm,Thunderstorms and Rain,210,2013-05-30 03:48:00
10:53 PM,60.1,59.0,96,29.65,3.0,SW,6.9,-,0.42,Rain-Thunderstorm,Thunderstorms and Rain,220,2013-05-30 03:53:00
11:09 PM,60.8,59.0,94,29.67,4.0,WSW,8.1,-,0.09,Rain,Rain,240,2013-05-30 04:09:00
11:53 PM,59.0,59.0,100,29.58,7.0,ESE,4.6,-,0.25,Rain,Light Rain,120,2013-05-30 04:53:00